ECHOSTAR 18

Last updated on Sat Dec 13 2025 00:02:49 GMT+0000 (Coordinated Universal Time)

1 41592U 16039B 25346.26414572 -.00000272 00000+0 00000+0 0 9991 2 41592 0.0179 359.6825 0001512 265.9502 209.3252 1.00270180 34757
UTC large
Height (km)
Speed (km/s)
/
Latitude / Longitude
Inclination (degrees)
Orbital Period (minutes)
Azimuth
Elevation
Range (km)
Doppler Factor

Next 0 passes for location: London (51.5072 / 0.1276)

Sorry there are no passes over London.